Theta_e
326 319 316 317 317 318 314 308 294 299 293 290 289 289 291 298 298 295 295 298 295 300 302 301 299 302 299 299 303 305 306 301 304 292 293 311 326 329 330 336 346 346 347 348 349 349 349 349 352 353 353 352 352 352 351 352 351 351 351 351 351 350 349 349 348 349 349 349 349 349 348 347 346 347 347 347 349 349 349 348 346 346 345 346 345 343 342 341 339 337 335 335 336 337 338 340 340
321 316 319 319 315 314 307 303 296 290 289 287 291 290 294 296 296 294 295 297 299 300 301 300 300 301 302 302 304 309 308 311 314 315 321 327 325 325 329 335 346 346 346 348 349 349 348 349 349 352 352 352 351 352 351 352 351 351 350 350 350 349 349 348 348 348 348 348 348 347 347 347 346 346 346 347 348 348 348 347 346 346 346 346 344 342 341 341 339 337 334 334 336 337 338 338 338
321 320 320 318 314 312 309 302 294 287 286 283 288 291 296 294 293 295 297 298 301 301 301 300 300 302 302 302 302 302 300 315 316 318 317 325 321 322 329 334 345 347 347 348 348 349 348 347 347 351 350 351 351 351 352 351 351 352 351 351 351 349 348 348 348 348 348 347 346 347 347 347 346 346 345 346 346 347 348 347 346 346 345 345 342 342 342 340 339 337 334 333 335 336 337 337 337
323 321 320 313 307 307 300 297 292 288 287 285 287 294 294 294 294 296 298 300 299 300 302 302 298 303 301 299 301 304 302 311 316 316 317 321 323 326 329 334 339 348 347 347 348 348 348 345 347 349 349 350 350 350 351 351 350 350 351 351 350 350 348 348 348 347 347 346 346 346 346 347 346 346 345 345 346 346 346 346 345 345 345 343 342 341 341 340 338 337 334 332 334 335 336 336 337
320 322 321 312 308 303 299 297 290 287 287 287 286 294 294 295 296 297 299 298 298 298 300 301 298 302 304 303 305 298 301 306 318 322 322 324 329 332 333 335 338 345 345 346 348 348 347 345 347 349 350 349 350 350 350 351 350 350 350 349 349 348 349 347 347 346 346 346 346 347 347 347 346 346 345 345 345 345 345 345 345 344 344 342 341 341 342 340 338 337 334 331 333 334 335 335 335
316 317 321 312 304 307 298 289 291 289 292 290 290 293 294 297 297 297 298 298 300 299 300 299 298 300 304 306 310 305 315 302 317 321 322 325 331 333 335 335 337 340 342 346 348 347 347 344 348 350 351 351 350 350 350 351 349 350 349 349 349 348 348 347 347 346 346 346 345 346 346 347 347 345 344 344 345 345 345 345 344 343 343 343 342 341 342 340 338 336 334 331 333 335 333 333 334
315 312 312 307 306 306 296 289 289 290 294 294 293 293 296 296 298 297 297 298 299 299 300 301 305 302 301 306 308 316 320 320 318 322 325 328 331 333 335 333 336 340 345 346 346 347 346 343 350 352 351 351 350 350 350 350 350 349 350 348 348 348 348 347 347 346 346 345 345 345 345 346 347 345 344 344 344 345 345 344 343 342 342 342 341 341 341 339 337 336 334 330 330 333 333 332 332
319 309 309 300 300 295 292 290 291 289 294 296 296 296 296 298 297 297 297 295 298 296 299 299 299 300 300 304 302 313 321 323 324 329 330 330 331 333 334 335 338 344 346 346 345 344 344 343 349 349 350 351 350 350 350 349 349 349 349 348 348 348 347 347 346 346 345 345 345 345 345 346 345 345 344 345 345 345 344 343 342 342 341 341 340 339 339 339 337 335 334 330 328 331 330 330 330
315 309 308 300 296 293 288 290 291 294 295 297 297 302 305 299 299 296 296 297 298 298 298 300 298 297 300 303 301 309 314 321 324 327 329 330 331 332 334 334 336 340 343 344 344 344 344 342 347 349 349 351 350 350 350 348 348 347 348 348 348 348 348 347 346 346 349 348 345 345 345 346 345 345 345 345 345 344 343 342 342 342 342 340 339 338 338 337 336 335 334 331 328 328 328 328 328
308 306 299 298 296 292 289 290 288 292 293 296 296 298 299 300 298 296 297 297 298 298 300 299 299 299 301 300 302 304 307 315 321 323 329 330 332 333 332 333 335 336 338 342 342 343 340 340 339 345 348 350 350 350 350 349 348 349 348 347 347 347 347 348 346 346 346 346 345 346 346 346 345 344 344 345 344 343 342 341 341 341 341 339 338 337 337 336 336 335 334 331 327 326 327 326 326
301 306 304 295 290 289 288 289 290 294 294 297 297 299 300 299 299 298 298 298 298 298 299 299 300 299 300 299 300 308 310 312 317 318 326 330 330 331 331 332 333 334 334 337 342 343 342 339 336 338 343 345 347 349 349 349 349 349 348 347 347 347 347 346 347 346 346 347 347 346 346 345 344 344 344 344 343 343 342 341 341 341 341 339 338 337 337 336 335 334 333 330 326 325 325 324 325
297 297 297 292 291 292 289 289 291 293 295 296 297 300 299 300 299 297 297 298 298 298 299 300 298 299 298 299 300 303 304 305 311 317 326 329 329 329 330 331 332 332 331 332 333 335 341 340 339 337 333 336 341 345 346 347 347 347 347 347 346 345 346 346 346 346 346 347 346 346 345 345 344 344 344 344 344 342 341 341 341 341 340 339 338 337 336 335 335 334 332 328 325 323 323 322 323
298 299 293 291 290 290 291 290 290 292 293 296 294 300 299 299 298 298 297 297 297 298 299 301 302 299 297 298 301 303 300 303 307 313 324 327 327 328 328 329 330 330 330 329 330 331 333 335 339 340 333 325 328 334 339 342 344 346 347 347 346 346 345 346 347 348 346 347 346 346 345 345 345 344 343 343 343 342 341 341 341 341 341 340 338 336 336 336 334 333 330 327 323 321 321 320 321
305 301 296 293 291 292 291 291 291 289 291 294 297 299 300 298 301 298 298 297 298 297 301 303 301 301 298 298 299 298 299 304 305 311 322 326 327 326 325 323 323 325 326 328 327 328 329 330 334 338 336 337 337 330 331 336 340 344 344 344 344 344 346 346 346 347 347 346 345 343 341 342 343 344 344 343 342 342 342 341 341 341 339 338 337 335 335 334 333 332 329 325 322 319 318 318 319
302 302 295 294 289 288 293 289 292 288 291 295 298 298 299 302 299 298 298 296 299 301 303 303 303 299 293 296 296 298 299 302 305 308 319 322 324 324 321 320 321 322 324 325 325 326 326 326 329 334 335 336 338 338 337 334 334 337 340 340 342 342 342 343 345 342 342 341 338 335 335 336 337 338 341 341 339 338 337 339 340 340 339 338 337 336 335 334 333 331 328 325 321 318 316 317 318
305 300 294 292 287 288 290 292 291 291 292 294 298 297 297 300 300 299 302 299 300 304 301 299 301 299 299 298 299 300 301 301 303 307 314 317 318 318 314 313 313 314 314 318 322 322 323 324 326 330 334 332 332 335 337 338 330 331 335 337 339 340 340 340 338 336 335 332 331 330 329 330 328 330 328 333 334 334 333 332 337 339 339 338 336 335 334 333 332 331 329 326 323 320 317 317 318
303 296 290 287 287 287 291 292 290 289 293 295 299 299 297 298 300 301 303 301 299 299 299 298 299 300 298 299 300 301 301 302 305 306 312 312 313 311 310 310 310 310 312 311 312 313 315 319 322 326 328 328 328 330 335 339 335 330 330 331 332 335 335 336 335 327 324 324 325 324 326 334 334 331 331 333 326 330 324 327 337 338 339 338 337 335 334 332 332 331 329 326 324 321 320 318 317
299 291 289 288 290 291 295 295 294 294 294 295 298 297 296 296 300 301 302 300 298 298 298 299 300 299 300 301 301 302 304 302 303 305 306 305 306 304 304 305 307 308 309 311 313 314 314 315 316 317 319 323 325 330 334 338 336 334 336 337 337 334 329 328 330 333 329 329 322 325 334 335 335 333 334 331 332 327 327 325 327 335 337 335 335 335 333 332 331 330 330 327 324 322 316 305 305
298 294 289 290 293 295 297 297 296 296 295 296 297 297 297 297 298 301 298 297 297 297 297 297 297 298 299 300 300 301 302 303 303 303 302 302 302 304 304 305 306 306 308 309 311 314 314 314 315 316 317 317 322 325 330 332 338 336 335 338 337 330 331 332 335 334 336 335 333 333 333 335 334 335 335 332 333 324 328 321 326 332 335 333 333 335 333 332 331 331 330 329 325 322 311 308 305
299 292 290 291 296 297 297 298 298 298 297 298 298 299 298 300 299 301 298 296 296 295 294 296 296 296 297 299 300 300 301 301 302 302 302 302 302 302 303 304 306 305 307 308 309 315 314 313 314 314 315 316 317 324 327 330 333 337 338 336 336 335 334 335 332 334 333 334 336 334 331 330 332 334 330 326 329 329 324 321 325 328 329 328 327 330 332 333 333 331 330 327 321 317 312 311 309
300 292 291 294 295 295 297 298 299 298 298 297 297 298 297 299 300 299 297 296 296 296 297 296 297 297 298 298 298 299 299 300 300 301 301 302 302 303 303 305 306 307 307 308 309 313 312 313 312 313 315 316 316 321 324 327 328 334 337 338 336 335 335 334 333 334 335 335 332 332 332 332 332 331 331 331 332 330 329 329 329 331 332 331 324 328 326 327 327 325 322 316 315 315 313 313 312
298 295 296 296 295 295 298 298 299 299 297 297 296 296 297 300 300 298 297 295 291 295 298 297 299 299 298 298 298 298 298 299 299 299 300 301 302 302 303 303 307 307 308 309 309 312 313 314 312 312 314 316 316 318 324 327 327 329 331 333 335 334 334 334 335 335 335 334 334 332 331 331 332 331 330 331 331 332 332 331 330 328 327 327 328 327 325 325 327 325 322 320 318 315 314 313 311
294 296 297 296 298 297 298 299 299 297 299 296 295 298 299 297 297 297 297 296 295 298 298 297 299 299 299 299 299 298 297 297 298 298 300 301 302 302 302 304 305 306 306 307 309 311 314 313 311 312 313 315 316 318 322 326 327 331 331 331 332 333 334 332 331 330 330 330 331 330 331 330 329 329 331 331 329 331 331 331 330 330 328 328 326 326 327 327 326 324 322 320 318 316 313 311 311
296 294 296 298 297 299 299 299 298 296 296 297 298 298 297 296 296 297 296 297 297 297 298 298 298 299 299 298 298 298 297 297 298 299 300 301 302 303 303 304 305 305 306 306 310 312 312 312 311 313 316 315 315 317 321 326 329 329 327 327 328 327 328 328 328 328 328 327 327 326 326 328 327 329 329 329 327 328 329 331 330 330 329 328 327 328 327 325 325 324 322 321 319 315 313 311 311
296 296 298 298 298 298 297 296 297 297 297 297 298 297 296 296 296 297 296 296 296 297 297 297 297 297 298 298 297 297 297 297 298 299 301 300 303 304 303 303 304 305 306 307 310 311 311 312 314 318 321 319 317 318 326 329 329 327 326 325 325 323 325 324 324 325 325 325 325 325 325 327 329 329 327 326 326 325 325 325 325 325 325 326 328 326 325 324 323 323 322 320 319 317 315 314 311
298 297 298 298 298 299 296 297 297 296 298 297 297 295 294 296 298 296 297 296 296 297 296 296 296 296 296 296 297 297 297 297 297 299 300 300 302 303 302 302 304 305 307 309 309 309 310 313 317 317 321 320 323 327 326 326 326 326 325 324 323 322 322 322 322 322 323 324 324 325 325 326 328 329 328 327 325 323 322 322 322 322 322 322 323 322 323 322 321 320 320 319 317 317 317 315 312
298 297 297 298 297 298 298 298 297 296 298 296 296 295 295 296 297 292 296 296 296 296 296 295 295 295 295 296 296 296 297 296 298 298 299 299 299 300 300 301 303 304 306 308 308 309 310 313 314 314 316 320 321 322 322 321 322 322 322 322 321 320 319 318 317 317 319 321 323 323 323 323 325 326 326 325 324 322 321 320 320 321 320 320 321 319 319 319 319 319 318 318 318 317 316 315 315
298 297 296 296 296 296 297 297 296 296 297 295 296 294 295 295 296 295 295 296 296 295 295 295 294 294 294 295 295 295 296 296 297 298 297 297 297 298 299 298 301 304 306 307 308 309 311 312 313 312 313 316 317 318 317 316 316 317 316 316 315 315 315 315 314 314 314 316 319 321 321 321 321 321 321 321 321 320 319 319 319 319 319 320 321 320 319 318 318 317 317 317 317 317 316 315 317
297 297 294 293 295 295 296 296 296 296 297 296 296 295 292 294 293 295 295 296 296 295 295 294 294 294 294 294 295 294 295 295 296 296 297 296 298 300 300 300 301 305 307 307 308 308 309 311 311 311 311 311 312 312 312 312 311 311 311 311 311 311 310 310 311 311 311 312 314 317 319 320 320 319 318 317 317 318 318 318 318 318 319 319 319 319 318 318 317 317 317 316 315 314 313 312 314
299 297 293 293 291 292 297 298 296 296 297 295 297 287 288 292 296 293 296 295 295 294 294 294 293 294 294 294 294 294 295 295 295 295 296 296 298 300 300 300 303 305 306 307 308 308 309 311 310 309 309 309 308 309 310 309 309 309 308 308 308 308 307 307 307 308 308 308 310 313 315 316 318 319 317 316 315 313 313 313 313 314 315 316 315 315 314 314 313 314 315 313 310 309 308 308 309
293 294 294 289 289 287 294 296 294 295 297 295 297 288 288 292 292 294 294 295 295 293 293 293 294 293 293 293 293 294 295 295 296 296 297 297 298 299 299 300 303 305 305 306 306 308 308 308 308 307 307 307 307 307 307 307 307 307 306 306 306 306 305 305 306 306 306 306 307 308 311 313 313 314 314 313 312 310 309 309 309 310 310 311 311 311 310 308 307 307 309 307 305 304 304 304 305
293 291 285 288 288 287 294 295 296 295 296 295 295 288 291 294 293 294 294 294 294 293 293 294 294 293 293 293 293 294 294 295 296 296 297 297 298 298 298 300 302 303 304 306 307 308 307 307 306 306 306 305 305 306 305 305 305 305 305 305 304 304 303 303 303 303 304 304 304 305 307 310 311 311 311 310 308 308 308 308 309 309 308 308 308 307 305 304 303 303 303 304 302 301 301 301 302
291 290 284 289 288 288 292 296 295 295 294 296 295 289 290 292 292 294 294 294 294 293 293 294 294 294 294 293 294 293 293 293 294 296 296 296 296 297 298 299 302 303 304 306 307 307 307 307 305 305 305 304 304 304 304 304 303 303 303 302 302 302 301 301 300 300 301 301 301 301 302 303 306 308 307 306 305 305 305 306 307 308 308 308 308 308 306 304 303 302 301 301 301 299 300 299 300
286 290 288 288 290 288 288 292 295 295 295 291 293 290 291 292 292 293 294 294 293 293 294 294 294 294 294 294 293 293 293 293 293 294 295 295 296 297 298 300 301 302 303 306 306 306 306 306 305 304 304 305 304 303 303 302 302 302 301 301 300 299 299 299 299 299 299 299 299 299 300 300 302 303 303 302 302 302 301 301 301 302 303 303 303 304 304 305 304 303 299 299 298 298 296 296 296
284 289 288 289 289 290 291 290 293 294 294 292 291 290 292 293 292 293 294 294 294 294 294 295 294 294 293 294 293 293 293 293 293 294 295 296 296 297 297 298 300 301 304 306 306 306 306 306 305 304 304 303 303 302 302 301 301 300 300 299 298 297 297 297 297 297 297 298 298 297 298 298 299 300 300 300 300 299 299 299 299 299 299 299 299 299 299 299 298 297 295 294 294 293 292 292 293
291 289 288 288 289 289 292 293 295 296 292 292 290 290 292 294 294 293 293 294 293 294 293 293 294 293 293 293 293 293 293 293 293 294 295 295 295 297 297 298 301 302 304 305 305 306 307 306 305 305 304 304 303 303 302 301 300 299 298 297 296 296 296 296 296 296 296 296 296 296 296 297 297 298 298 298 298 297 297 297 296 297 297 296 296 295 295 296 294 292 292 290 289 289 290 290 291
294 293 292 290 289 290 292 294 293 294 293 290 292 292 291 293 294 295 294 293 293 292 293 293 293 293 293 293 293 293 293 292 293 294 295 295 295 296 297 297 299 303 304 304 305 305 306 306 305 304 305 305 304 303 302 301 299 298 297 296 294 294 294 294 294 294 294 294 294 294 294 294 295 295 295 296 295 295 294 294 294 293 293 293 292 292 292 293 294 293 291 290 288 288 288 289 289
293 291 290 289 290 290 293 295 295 294 293 288 290 290 291 293 295 296 293 292 292 293 293 293 293 294 294 293 293 292 292 292 293 293 294 294 294 295 296 297 298 300 301 303 304 305 305 304 303 303 303 303 304 303 301 300 300 298 295 293 293 293 293 292 291 291 292 292 291 291 292 292 292 292 292 292 292 291 290 290 290 290 290 290 290 290 290 291 290 291 291 289 288 287 286 287 289
292 290 288 289 288 291 293 294 294 294 294 289 289 290 292 294 295 296 294 292 294 295 295 295 294 294 293 293 293 291 290 291 292 293 293 294 294 295 295 296 296 298 300 301 302 303 302 302 301 301 300 300 300 300 299 297 297 296 294 292 292 291 291 290 289 289 289 289 289 289 290 290 290 290 290 290 290 289 288 288 288 288 288 289 289 288 288 288 288 288 289 289 286 287 287 288 287
292 289 288 286 287 291 286 291 292 293 293 288 289 289 292 294 295 296 298 296 295 296 296 295 295 295 294 294 293 292 291 290 291 292 292 293 294 294 294 295 295 297 298 299 301 300 300 299 299 298 297 296 297 297 296 295 295 294 294 292 291 290 288 289 288 288 288 288 287 288 288 288 289 288 288 288 288 288 288 287 287 287 287 287 288 287 287 286 287 287 287 287 287 285 284 285 286
288 291 289 288 290 291 291 291 291 291 291 292 290 290 291 293 293 294 297 297 297 297 294 293 294 295 295 295 294 293 292 291 291 291 292 293 293 294 294 294 295 296 296 297 298 299 299 298 297 297 296 295 295 295 295 294 293 292 291 291 290 289 288 287 286 285 286 287 286 286 286 287 288 288 288 288 288 287 287 287 287 286 286 286 287 286 286 286 285 285 286 286 285 283 283 283 285
288 290 292 292 292 292 291 292 292 285 285 289 290 282 282 285 290 292 295 291 294 295 293 293 294 295 293 293 293 293 293 292 292 292 292 293 293 293 293 293 294 294 294 295 296 298 297 296 295 295 295 294 294 294 294 294 292 291 289 288 287 286 285 285 284 284 284 284 285 285 286 286 286 286 286 287 287 286 286 286 285 285 285 285 285 285 285 285 285 285 285 285 285 284 283 282 282
288 288 293 293 293 292 292 291 290 282 282 289 291 284 283 288 292 294 294 293 295 292 291 294 293 294 293 294 293 293 292 291 291 292 292 292 293 293 293 293 293 293 293 293 295 296 296 295 295 296 295 294 294 294 293 293 292 291 290 288 287 286 284 284 284 284 284 284 285 284 285 285 285 285 285 285 285 285 285 285 285 285 284 284 285 284 284 284 284 285 285 285 284 286 284 282 282
285 290 293 292 291 291 290 291 290 284 285 289 289 286 283 286 292 294 295 295 296 296 294 292 293 293 293 293 293 292 292 291 291 291 292 293 293 293 293 293 293 293 292 293 295 295 295 295 295 296 295 294 294 294 293 293 292 290 288 287 286 285 284 284 284 284 284 284 284 284 284 284 284 284 284 284 284 284 284 284 284 284 284 284 285 284 283 283 284 285 284 284 284 284 284 283 281
288 294 293 293 292 291 290 289 287 286 286 284 284 288 285 283 286 291 293 291 292 294 295 294 294 293 292 292 292 292 292 291 291 291 292 292 292 293 293 292 292 291 291 293 294 294 295 295 295 295 294 294 294 293 292 291 290 289 288 286 285 285 285 284 284 285 284 284 283 283 283 283 283 284 284 284 283 284 284 283 283 284 284 283 284 283 283 283 283 283 283 283 283 283 283 283 282
294 293 293 292 291 291 291 287 288 284 283 282 283 287 283 286 288 291 290 290 292 294 296 296 296 293 292 292 291 291 291 290 291 291 292 292 292 292 292 291 290 290 291 292 292 293 294 294 293 293 292 292 292 291 290 289 289 289 287 286 285 284 284 284 283 283 282 282 282 282 282 282 283 283 283 283 283 283 283 283 283 283 283 283 283 282 282 282 282 282 282 282 282 281 282 283 281
294 293 291 289 287 286 283 283 282 283 279 284 287 288 288 283 284 288 289 290 293 295 294 295 293 292 292 292 291 290 290 290 290 290 291 291 291 291 290 290 290 289 289 291 291 292 292 293 292 291 290 290 290 290 289 289 288 288 286 285 285 284 284 283 282 282 282 281 281 281 281 282 282 282 283 283 283 283 283 283 283 283 283 283 283 282 282 282 282 281 281 281 281 281 280 280 281
294 289 284 286 284 279 282 280 282 278 278 281 288 288 288 282 280 286 292 291 290 294 294 294 293 292 292 292 291 290 290 290 290 290 289 290 289 289 289 289 288 289 289 290 289 290 291 291 291 289 288 289 289 289 289 288 288 287 286 285 285 285 284 283 282 282 281 281 281 281 281 282 281 282 282 282 282 282 282 282 282 282 282 282 282 282 282 282 282 281 281 281 280 280 280 280 279
291 289 288 283 279 278 275 277 276 275 279 280 283 286 283 285 290 291 293 294 295 291 292 294 293 291 291 291 291 290 290 289 289 289 289 289 289 288 288 288 287 287 289 289 289 289 289 289 289 289 288 288 289 289 288 287 287 286 286 285 285 285 284 283 283 282 281 281 281 281 281 281 281 281 280 281 281 281 282 281 282 282 282 282 282 282 281 281 281 280 280 279 279 279 279 279 279
288 289 285 282 278 276 273 273 274 275 279 281 283 285 285 284 289 295 297 299 300 297 289 291 293 292 291 290 290 289 289 289 289 289 289 288 288 288 288 288 287 287 288 288 288 288 288 288 288 288 288 288 288 288 287 287 286 286 286 286 286 285 284 283 283 282 282 282 282 281 281 281 281 281 281 281 281 282 282 282 282 281 281 281 281 281 280 280 279 279 278 279 278 278 278 278 278
290 288 291 286 282 275 274 276 276 278 276 279 281 283 279 281 287 288 289 287 286 288 288 289 290 290 290 289 288 288 288 288 288 289 289 288 288 288 288 287 287 287 288 288 288 288 288 287 288 288 287 287 287 287 287 286 286 286 286 286 285 285 284 283 283 283 282 282 281 281 281 281 281 281 281 281 282 281 281 281 280 280 280 280 280 280 280 279 279 279 279 279 279 278 278 278 278
286 288 288 284 286 285 283 277 277 277 277 276 277 282 282 288 288 286 286 286 288 287 289 288 288 288 288 287 288 288 288 288 288 288 288 288 288 287 287 287 287 287 287 287 288 288 287 287 287 287 287 287 287 287 287 287 286 286 286 285 285 285 284 283 283 283 282 282 282 282 281 281 281 281 281 281 281 281 280 280 279 279 279 279 280 280 279 279 279 279 279 279 278 280 279 278 277
286 289 285 289 288 290 284 280 281 279 276 280 277 282 283 287 292 293 289 287 287 285 288 288 287 287 287 288 287 287 288 288 287 288 288 287 287 287 287 287 287 287 287 287 288 287 287 287 286 286 286 286 287 287 286 286 286 286 286 285 285 284 284 283 283 283 282 282 282 281 281 281 281 281 281 281 280 279 279 279 279 279 279 279 279 279 280 279 279 279 278 277 277 277 277 277 277
288 283 287 291 290 288 284 279 276 276 275 278 280 282 283 282 285 288 288 286 286 286 286 286 287 285 287 288 287 288 288 288 288 288 288 287 287 287 287 287 287 287 287 287 287 287 287 287 286 286 286 286 286 286 286 286 286 285 285 285 285 284 284 283 283 283 282 282 281 281 281 281 281 281 282 281 280 279 279 280 279 279 279 279 279 279 279 278 278 278 277 277 276 276 276 276 277
290 286 291 291 282 282 283 279 275 274 275 276 278 282 284 285 287 283 286 286 289 288 286 285 286 286 287 287 287 287 287 287 287 287 287 287 287 288 287 287 287 287 287 287 287 286 286 286 286 286 286 286 285 286 285 285 285 286 285 284 283 283 283 283 282 282 282 281 280 280 280 280 280 280 280 279 279 279 279 278 279 279 279 279 278 278 277 277 277 277 277 277 276 275 276 275 276
291 291 291 289 283 280 281 283 278 278 275 273 279 279 283 286 287 288 289 289 290 291 286 286 288 288 288 288 288 287 287 288 288 288 288 288 288 288 287 287 286 286 286 286 286 286 285 285 285 285 284 284 284 284 284 284 283 284 283 282 282 283 283 282 282 282 281 281 280 280 280 280 280 280 279 279 279 278 278 278 278 278 278 277 277 276 277 277 276 276 276 276 275 275 274 274 275
285 286 286 288 285 287 284 283 282 279 274 274 278 279 282 286 292 291 293 291 291 291 290 289 289 289 289 289 288 288 288 288 288 288 288 288 288 288 287 287 286 285 286 286 286 286 285 285 284 284 284 283 283 283 283 283 283 282 282 282 282 282 281 281 281 281 280 280 280 280 280 280 279 279 279 278 279 279 278 278 278 278 277 277 276 276 276 276 276 275 276 275 274 274 273 273 274
291 290 287 290 286 284 280 281 283 281 281 279 275 281 285 289 290 295 293 293 292 292 292 291 290 289 289 289 289 289 288 289 289 289 288 288 287 287 286 285 285 284 284 285 285 285 284 284 284 284 283 283 283 283 283 283 282 282 282 281 281 281 281 281 280 280 280 279 279 279 279 279 279 279 279 279 278 278 278 277 277 277 277 276 276 276 275 275 275 275 275 277 274 273 272 273 273
Wind_Speed
8 8 7 6 4 1 2 2 2 2 6 3 3 3 2 3 3 4 4 2 4 2 0 1 5 6 5 6 13 9 7 2 2 4 2 1 1 2 4 4 8 8 9 6 6 5 5 7 7 8 10 10 10 10 10 10 10 10 9 10 9 10 11 11 12 13 13 13 14 14 14 13 13 13 13 13 14 15 15 15 15 15 16 18 19 18 17 16 16 15 15 14 14 14 14 14 14
6 6 6 5 3 2 1 1 3 3 5 6 1 2 2 2 6 3 5 4 1 1 0 2 3 7 11 11 7 11 11 7 5 4 2 1 0 3 4 3 7 11 7 7 6 6 5 6 7 8 11 10 10 10 10 10 9 9 9 9 9 9 11 11 11 12 12 13 13 13 13 13 13 13 13 13 14 14 14 14 13 15 16 18 19 17 16 16 15 15 15 14 14 14 14 14 13
6 6 7 5 3 3 0 2 1 2 6 5 1 2 1 9 6 3 4 4 1 2 1 3 4 4 6 6 10 5 1 4 6 5 2 3 3 5 5 4 8 9 10 6 7 7 5 6 8 8 8 10 10 10 9 10 9 8 8 7 8 10 10 10 12 11 12 12 12 12 12 13 13 12 12 12 12 13 14 14 15 15 17 18 18 17 16 15 15 15 14 14 14 14 14 14 13
4 1 0 3 1 3 2 2 3 5 6 5 3 1 4 6 5 5 3 3 2 1 1 1 3 1 6 9 5 5 3 2 2 1 1 1 1 5 3 1 5 8 7 7 6 6 6 7 9 10 8 7 8 7 8 9 9 9 7 7 8 8 9 9 10 11 11 11 11 11 12 13 13 12 12 12 11 12 12 14 16 16 17 18 17 16 15 15 15 15 14 14 14 14 14 14 14
4 2 1 2 2 2 2 0 3 4 4 3 4 1 5 5 5 5 2 1 3 3 2 1 3 3 4 4 2 2 0 2 4 4 2 2 3 3 5 4 5 8 9 8 8 6 6 11 10 10 12 10 10 8 7 7 8 8 8 8 8 9 9 9 9 10 11 10 11 10 11 11 12 12 11 11 11 11 12 15 16 16 16 16 16 15 15 15 15 15 14 14 14 14 14 14 14
3 3 1 2 1 3 3 4 5 7 0 3 4 3 5 6 6 5 3 2 1 3 2 4 2 2 4 3 2 2 2 2 2 2 2 1 2 5 5 3 5 8 8 8 8 7 7 11 11 10 11 11 11 9 7 8 8 8 8 8 8 8 8 9 9 9 10 10 10 10 10 10 11 11 11 10 11 12 13 15 16 16 15 16 15 15 14 15 15 14 14 14 14 14 14 14 13
3 5 2 3 2 2 4 4 4 4 5 2 4 5 7 5 7 7 4 2 3 4 3 4 7 6 6 0 3 2 2 1 2 1 1 2 1 4 5 2 4 7 8 7 6 7 8 11 11 11 10 10 11 9 8 7 7 7 7 8 7 8 8 7 8 9 9 9 8 9 9 10 10 9 10 10 11 12 13 14 14 15 15 15 15 14 14 14 14 14 13 13 13 13 13 13 13
0 2 1 3 1 3 4 2 2 2 3 3 2 7 5 5 4 4 4 3 1 2 2 4 3 7 2 2 4 1 4 5 3 3 3 1 3 5 8 7 8 7 7 6 6 6 8 10 10 10 11 11 10 9 9 7 6 6 7 7 7 8 8 7 7 7 8 7 8 8 8 9 9 9 9 10 12 12 12 14 14 14 14 15 14 13 13 13 14 13 13 13 13 13 13 13 13
2 1 1 4 2 2 4 2 3 0 3 2 3 3 5 3 3 4 5 1 2 2 3 2 2 7 2 6 4 1 2 3 5 4 3 4 5 5 8 9 7 7 7 6 6 5 5 9 9 9 8 10 10 9 9 9 8 7 7 6 6 7 7 7 7 6 5 6 7 7 8 9 8 9 9 10 11 12 11 13 13 14 14 14 13 13 13 13 13 13 13 12 12 12 12 12 12
1 2 1 1 2 2 3 1 5 1 3 2 5 3 3 0 3 4 6 6 4 2 1 4 4 5 4 7 2 2 2 2 3 6 6 5 4 6 9 8 7 8 7 6 5 5 5 8 9 8 8 8 9 7 8 8 7 6 8 7 6 6 6 5 6 5 5 7 8 9 8 9 9 8 8 10 11 11 11 12 12 13 13 13 12 12 12 12 13 13 12 12 12 11 11 11 11
2 1 2 3 5 1 2 1 3 2 5 1 2 0 1 1 4 4 3 4 1 2 2 6 7 5 3 2 2 0 1 4 5 3 4 5 5 6 6 6 8 8 9 7 6 5 5 5 9 9 8 8 7 6 5 7 6 5 7 7 5 4 6 4 6 6 7 9 10 9 8 8 7 7 8 10 11 10 10 11 12 13 13 13 12 11 12 12 12 12 12 11 11 11 11 11 11
2 2 3 2 1 1 3 7 3 3 3 3 1 0 1 3 3 3 4 7 1 4 3 2 2 5 4 2 1 0 3 5 2 2 4 5 5 5 5 5 8 8 8 7 7 6 4 3 4 7 10 10 8 7 5 6 6 6 5 5 6 5 3 6 7 7 8 8 9 9 8 8 7 7 7 8 10 10 10 10 12 13 12 12 11 10 11 12 12 12 11 11 10 11 11 11 11
3 1 4 3 0 2 2 6 4 5 3 1 4 1 1 4 2 1 3 5 4 5 2 2 0 4 2 1 2 0 3 2 2 2 5 6 4 4 4 5 6 7 6 6 7 6 6 5 3 2 6 8 7 8 7 7 6 6 7 6 6 6 5 4 6 7 9 9 10 9 8 8 7 7 7 8 9 8 8 10 11 11 12 12 11 11 12 12 12 12 12 11 11 11 11 11 11
2 1 3 1 0 1 5 2 1 5 1 2 1 2 1 2 0 4 8 7 2 3 1 1 3 6 3 3 1 0 1 1 1 0 5 7 5 4 5 4 6 6 5 5 6 4 5 4 5 4 2 4 5 5 6 7 7 7 6 6 6 5 4 4 5 7 8 9 9 9 8 8 8 8 8 9 9 7 6 7 9 10 12 12 11 10 11 11 11 12 11 11 11 11 11 11 11
1 0 2 1 2 2 1 6 7 5 1 1 2 2 1 1 3 5 8 6 1 1 1 3 1 3 4 6 3 3 2 2 2 1 6 6 6 6 5 5 6 5 5 6 4 5 4 4 4 4 5 3 1 2 2 5 9 8 8 8 7 7 4 4 5 7 8 9 9 8 8 7 8 8 8 9 9 8 7 7 8 8 10 11 10 10 11 10 10 10 10 11 11 11 10 10 10
1 2 2 2 2 1 2 2 3 7 1 2 3 5 5 2 2 4 0 2 2 2 3 1 5 1 1 4 2 4 3 3 3 2 5 8 5 4 5 5 5 5 5 5 4 4 3 3 3 4 4 3 2 1 3 4 7 10 9 9 10 8 7 7 6 5 8 8 8 9 9 8 8 7 10 8 9 9 8 6 8 9 10 10 9 10 10 10 9 9 9 9 10 10 10 9 8
2 4 2 3 2 2 3 1 3 1 1 4 0 2 2 0 1 1 0 3 6 1 5 3 1 3 2 2 4 3 3 3 3 3 4 6 6 4 4 6 6 5 4 5 5 5 5 5 4 3 3 3 3 2 1 5 6 9 8 9 10 10 9 9 8 7 6 6 7 7 7 6 5 5 6 6 8 6 8 8 8 8 9 8 7 9 9 8 8 8 7 7 8 7 6 6 7
2 2 2 2 1 3 1 1 2 2 6 4 2 1 5 2 0 0 1 2 4 4 8 2 7 5 3 2 3 2 1 4 4 4 4 4 4 4 5 3 5 5 5 5 5 5 6 5 5 4 3 3 3 3 2 1 3 6 5 5 5 7 7 7 7 6 5 4 5 5 3 3 3 3 4 6 5 6 6 8 8 9 9 9 7 8 8 6 6 6 6 6 6 5 5 4 4
2 1 3 1 0 2 0 0 3 3 3 4 3 3 5 3 4 1 1 1 4 3 3 2 5 3 2 3 4 5 5 6 7 6 6 6 5 5 5 4 4 4 5 4 5 6 5 5 6 6 5 4 4 3 3 3 3 3 3 4 3 4 5 4 3 4 3 4 4 3 2 2 2 3 5 5 5 7 7 8 8 8 9 10 8 8 7 6 6 5 5 4 3 3 3 4 5
0 4 3 0 3 2 4 3 2 1 7 5 3 1 5 3 1 0 1 1 3 5 5 1 3 4 4 3 5 5 6 5 6 6 6 6 5 4 4 5 4 4 3 3 3 4 5 6 5 5 5 5 4 3 3 3 0 2 4 4 4 3 3 3 3 3 3 3 3 3 3 2 4 3 5 8 7 5 5 6 7 8 9 9 9 6 7 6 6 6 5 5 4 3 4 5 6
1 4 2 1 1 2 1 4 1 3 4 4 3 1 3 1 1 2 1 1 0 3 4 6 9 10 8 5 5 5 6 6 5 5 5 5 4 4 4 4 4 4 2 3 4 4 5 4 4 6 6 5 4 4 3 2 2 4 4 5 5 4 4 3 2 2 3 3 3 2 2 3 4 3 4 4 4 4 4 3 3 3 4 5 7 4 5 5 5 3 3 2 3 4 5 5 5
2 1 2 2 2 4 2 3 2 2 4 6 3 3 2 0 0 0 2 2 4 6 2 5 7 10 10 9 6 5 5 6 5 5 5 5 5 4 4 4 5 4 4 6 4 4 5 4 4 4 5 5 4 3 3 4 2 1 3 3 4 4 5 5 5 5 5 4 4 3 3 3 3 4 3 4 5 3 4 3 3 3 3 3 3 4 2 2 3 3 2 5 5 5 5 4 4
1 1 1 3 0 2 3 1 1 2 1 3 2 2 0 1 1 2 3 6 2 2 4 5 9 8 7 6 7 7 6 5 5 5 4 5 4 4 4 4 5 5 4 4 3 3 3 3 4 5 4 5 4 3 3 3 4 5 5 5 7 6 6 7 6 6 6 6 6 5 4 4 4 5 5 4 4 4 4 3 4 4 4 5 2 2 2 2 2 4 4 4 5 5 4 4 5
4 1 0 1 2 3 2 2 2 2 7 1 2 1 1 1 1 1 3 1 4 5 6 6 7 7 7 7 5 7 6 6 5 5 4 5 4 4 4 5 4 3 5 3 4 3 4 5 5 4 4 3 4 1 2 4 5 6 7 8 7 6 7 7 6 5 6 7 6 5 4 4 3 5 5 5 4 5 4 3 2 2 2 3 3 4 5 3 5 3 2 3 4 3 4 4 5
1 1 0 1 0 1 3 4 2 1 1 3 4 1 3 4 2 0 3 5 5 6 5 6 6 7 6 7 7 6 6 5 5 4 3 3 5 5 5 5 4 4 4 3 2 3 4 5 4 4 3 3 1 1 4 5 5 6 7 8 7 6 7 6 6 7 7 6 6 6 5 5 5 5 5 5 4 5 5 5 6 5 5 4 4 4 5 3 5 4 5 5 5 5 5 5 4
1 1 0 1 1 1 4 3 3 4 1 2 1 3 4 5 2 3 6 8 6 6 5 5 6 7 6 6 6 6 6 6 5 5 5 4 4 7 4 4 4 4 3 3 3 3 4 5 5 6 5 3 4 6 5 6 5 8 8 8 7 8 7 7 7 7 5 6 6 6 6 5 5 5 6 5 7 7 6 6 6 6 6 4 5 6 4 5 5 5 5 5 5 5 5 3 5
1 0 1 1 4 1 2 5 4 5 3 4 3 1 2 2 5 6 1 7 7 7 6 5 7 7 6 5 5 5 6 5 6 5 5 4 5 6 3 3 4 4 3 4 3 3 3 4 5 6 5 4 6 7 6 7 6 8 8 7 7 8 7 7 7 6 6 6 5 6 6 7 6 6 6 6 7 6 6 6 6 5 6 4 5 6 5 5 5 5 4 4 5 5 4 3 4
2 1 3 4 6 5 3 2 4 3 2 4 4 4 1 2 1 7 5 6 8 10 6 6 5 6 6 6 5 4 5 4 4 6 6 4 5 4 3 3 3 4 3 3 2 2 3 4 5 6 5 5 7 6 7 8 8 8 9 8 8 8 7 7 7 6 6 6 5 6 7 7 7 7 7 7 7 7 6 6 5 6 5 5 5 5 6 5 5 4 5 4 6 5 5 6 5
1 1 2 5 5 3 4 6 4 5 1 5 4 0 3 1 7 2 8 8 7 8 8 6 6 6 6 5 5 5 5 4 4 5 4 4 4 5 5 3 4 5 3 2 2 3 3 3 4 5 5 5 8 7 8 7 7 8 8 8 7 7 7 7 7 7 6 6 6 7 6 7 7 7 7 8 6 6 7 6 7 6 5 5 5 5 6 5 6 6 8 7 6 6 6 6 5
1 1 2 4 4 4 9 4 2 5 1 6 4 3 6 7 9 0 6 9 6 6 6 6 5 6 5 5 5 5 4 5 4 5 4 4 5 5 5 4 4 4 3 2 2 4 2 2 3 4 6 7 7 6 6 8 7 8 7 8 7 8 7 7 7 6 6 5 5 7 7 7 7 7 7 7 6 6 7 7 7 7 6 6 6 6 6 6 6 7 6 6 7 6 6 5 5
1 1 2 1 2 4 5 3 5 6 1 3 2 3 7 7 4 2 4 6 11 8 7 6 6 6 6 6 6 6 5 4 7 6 5 5 5 5 5 4 5 4 3 3 3 4 4 4 3 4 5 7 7 7 8 10 7 7 7 8 7 7 7 7 6 6 5 5 6 7 7 7 8 7 7 7 7 6 7 7 8 6 6 6 7 6 6 6 7 8 5 7 6 6 5 6 5
0 2 4 2 3 5 4 3 8 8 0 2 4 2 9 8 5 5 6 5 6 7 7 7 7 7 7 6 6 6 5 5 6 6 5 6 6 5 5 5 5 4 4 4 5 4 5 4 4 6 6 8 8 8 9 9 7 7 8 8 7 9 8 7 6 5 5 6 7 7 7 7 8 9 8 7 7 6 7 8 6 6 5 6 7 7 7 7 7 7 7 6 7 6 6 6 5
1 4 3 1 2 5 4 1 2 5 3 0 6 6 4 5 3 5 5 6 6 7 8 8 9 9 8 7 7 6 6 5 5 6 5 5 5 5 5 5 5 5 4 5 6 5 6 5 5 7 7 8 9 9 10 9 8 9 9 8 9 10 8 7 6 5 6 7 6 7 7 7 7 8 7 5 7 7 7 7 6 6 5 6 6 6 7 6 7 7 8 7 6 5 6 5 5
3 0 4 3 2 1 2 3 2 2 5 3 3 2 7 3 2 6 5 7 7 6 9 10 10 9 9 8 8 8 8 7 8 7 7 6 6 6 6 6 5 5 5 5 5 6 7 5 4 5 7 6 8 9 9 10 9 9 8 8 9 10 8 6 6 6 6 6 7 7 6 7 7 8 7 6 8 8 7 8 7 7 7 7 7 7 7 6 7 7 8 8 7 6 6 6 5
2 1 2 6 2 4 5 1 2 5 1 3 2 6 11 10 4 6 10 8 9 10 11 13 13 11 10 9 9 9 8 9 8 7 7 7 6 6 5 5 5 5 5 7 6 7 7 6 6 6 7 7 8 8 10 10 10 9 8 9 10 9 7 7 6 6 6 7 7 6 7 7 7 8 7 7 8 8 8 8 8 7 7 7 8 8 8 8 8 8 8 7 6 6 5 4 3
4 5 4 2 2 4 1 4 2 10 6 6 5 8 11 12 9 7 6 8 11 13 6 5 7 8 8 9 9 9 9 8 6 7 7 6 6 7 6 5 5 6 6 6 6 7 9 8 7 7 7 8 8 8 8 8 7 8 10 9 9 8 7 7 6 6 6 7 6 7 7 7 8 8 8 8 9 8 9 8 9 8 7 8 9 9 7 7 7 8 8 6 6 7 8 6 6
2 0 1 4 3 4 4 1 3 2 1 7 9 9 8 9 9 8 10 7 7 7 8 10 9 10 11 10 11 10 9 8 6 8 6 6 6 6 5 5 6 6 7 7 8 8 8 9 9 9 8 8 6 7 7 7 8 8 8 7 9 6 7 7 7 6 7 6 7 7 7 7 8 8 7 8 9 9 8 8 9 8 7 9 9 8 6 7 5 5 5 7 9 11 11 9 7
4 4 2 6 1 6 4 2 1 1 4 3 4 5 8 10 9 8 3 5 11 13 13 13 12 12 11 12 11 9 5 4 7 6 6 6 5 6 5 5 6 9 6 7 8 8 7 7 7 6 4 4 5 6 5 5 5 6 8 7 8 6 6 7 7 6 6 6 7 7 7 7 8 8 7 8 9 9 9 8 8 7 7 8 8 7 8 8 8 7 4 8 6 10 8 8 9
5 4 4 2 6 4 6 1 0 0 1 7 6 6 9 11 9 8 5 11 11 15 17 18 15 12 11 11 10 8 7 9 6 6 6 7 6 6 5 5 5 6 7 7 7 8 7 7 6 7 6 6 5 6 6 7 7 6 9 6 8 8 5 5 7 5 5 7 7 7 7 7 8 8 7 8 9 8 9 9 8 7 7 6 9 10 9 9 7 7 7 6 6 5 7 7 10
5 1 1 6 3 1 6 3 1 2 4 2 1 5 9 9 8 11 12 12 10 11 15 13 10 14 16 16 16 15 13 13 13 12 11 8 8 6 5 6 6 6 6 6 7 8 7 7 6 8 7 5 6 6 7 7 9 9 10 10 7 9 8 6 8 6 6 8 9 7 7 7 8 8 8 8 8 8 9 9 7 8 8 7 9 10 10 9 9 8 8 7 5 9 7 8 7
2 3 2 2 2 4 7 5 2 2 3 1 5 8 9 8 11 9 11 5 7 9 7 8 7 8 9 7 8 13 18 17 13 11 10 10 10 9 8 6 6 7 7 7 7 7 6 8 8 8 8 7 6 8 10 10 11 10 10 10 10 11 7 6 8 7 6 6 7 8 7 6 7 8 7 7 8 9 8 8 9 8 9 7 8 10 9 8 7 6 7 8 7 6 7 5 8
3 4 7 7 5 7 5 1 1 4 4 2 1 6 5 4 5 9 9 2 4 4 6 10 13 10 8 12 14 10 7 9 16 17 15 12 10 8 6 7 7 6 7 6 6 6 7 8 8 7 7 7 8 8 10 10 10 11 10 10 9 9 7 7 8 8 6 7 7 4 7 6 6 7 7 8 8 8 9 9 8 9 9 8 9 8 7 8 8 9 6 6 8 6 7 7 6
2 5 5 6 7 6 4 4 2 3 4 2 2 3 11 2 8 8 7 5 11 5 6 11 9 10 11 13 13 13 13 10 5 6 9 11 10 9 8 8 7 8 6 5 5 6 7 8 8 9 8 7 7 8 7 9 9 9 9 8 8 9 10 5 4 4 7 6 6 7 6 6 6 9 8 8 8 9 9 9 9 9 9 8 7 9 9 8 7 6 6 8 6 5 7 8 7
4 2 2 4 4 5 5 3 4 5 1 3 2 3 6 15 9 5 10 12 15 13 12 10 10 11 11 10 11 11 12 11 12 12 12 10 11 13 13 9 8 8 5 4 6 6 9 9 9 9 8 8 7 7 7 7 9 7 9 9 8 8 8 10 8 6 5 6 8 7 7 7 7 7 8 8 8 8 8 9 8 9 10 8 9 9 8 6 7 7 7 7 7 7 7 8 6
4 1 5 2 4 4 3 2 0 0 2 8 2 1 5 7 7 3 2 6 8 14 13 13 13 9 7 6 8 9 10 12 13 13 14 14 14 12 10 9 6 6 5 6 6 6 7 8 9 9 9 8 7 7 7 4 8 9 10 9 10 7 9 8 7 6 7 6 10 7 8 7 7 7 7 8 7 8 8 8 8 9 9 8 8 8 7 8 8 8 8 9 8 7 6 4 7
2 3 5 4 4 3 2 1 1 3 1 9 4 4 5 16 3 6 3 4 8 11 13 14 14 11 11 9 7 7 7 8 8 10 11 10 9 8 6 6 6 7 5 5 5 6 7 8 9 9 8 7 7 6 6 6 8 10 10 10 13 10 9 8 7 8 7 6 9 8 7 7 6 7 7 7 8 7 8 8 9 9 8 7 8 8 8 8 8 8 7 7 7 8 5 7 7
4 5 6 4 7 4 3 4 3 2 5 10 8 10 9 11 2 7 5 6 6 7 5 7 4 6 8 7 9 9 9 9 9 9 8 8 7 7 7 9 7 5 4 5 5 6 7 8 9 9 7 7 7 8 8 8 9 10 10 11 13 14 11 11 10 8 7 7 9 7 7 7 6 7 6 6 7 7 8 7 8 8 7 7 8 8 7 8 7 7 6 8 9 8 6 7 6
8 2 4 3 3 5 3 3 3 1 8 4 11 11 12 11 4 6 6 3 3 5 6 7 7 9 11 11 11 10 10 10 9 9 9 9 8 7 8 9 8 8 6 6 5 6 7 8 9 9 6 7 7 8 10 9 9 10 9 10 12 12 13 11 12 12 10 10 9 9 7 7 6 6 6 7 6 6 7 7 7 7 8 8 8 7 7 7 6 6 7 7 7 6 6 7 5
5 7 7 5 3 4 2 2 2 5 9 3 2 5 1 17 12 5 7 7 8 4 5 7 9 7 7 8 11 11 9 9 11 10 10 10 11 12 11 10 8 9 9 8 7 7 7 8 9 10 8 7 8 8 10 9 9 10 10 10 10 10 9 10 10 11 9 10 9 10 9 8 7 7 6 7 5 6 7 8 7 8 7 7 7 7 6 6 7 7 7 6 6 6 6 6 7
6 8 7 5 1 2 5 4 3 5 5 5 0 3 8 2 8 14 21 21 16 11 5 6 8 11 11 11 10 10 10 11 11 11 11 11 11 11 11 11 10 9 9 9 8 8 7 8 9 10 9 7 7 8 9 10 10 10 10 9 10 9 9 9 9 10 9 8 8 10 9 9 8 8 8 7 6 6 6 6 7 7 6 6 7 7 7 6 6 7 6 7 6 4 5 6 5
9 3 11 10 8 5 5 5 5 7 4 1 2 5 7 4 6 1 5 4 3 1 3 2 1 3 5 6 6 7 8 7 9 10 11 12 12 12 12 11 10 10 10 10 8 8 9 9 10 11 10 8 8 9 9 10 10 10 9 8 9 7 9 8 8 7 9 9 7 8 7 7 8 7 8 6 5 7 6 6 6 7 6 6 6 7 6 6 6 6 6 6 5 4 5 6 5
2 3 5 5 9 6 6 4 2 2 1 2 1 6 5 8 2 2 2 3 1 3 1 3 4 4 6 7 10 11 10 10 9 10 10 10 11 10 10 10 10 10 11 9 9 9 10 10 9 10 11 10 9 10 9 10 10 9 8 9 9 8 7 7 7 6 6 7 8 9 8 7 7 7 6 7 5 6 7 7 6 6 6 6 6 6 6 6 5 6 5 5 5 3 4 5 4
4 6 7 9 2 4 2 2 1 0 1 11 4 8 7 8 11 10 8 2 2 3 2 3 5 5 6 8 8 9 10 10 10 10 10 10 9 9 9 10 9 10 10 11 11 10 11 11 11 10 9 8 9 9 10 9 10 10 9 9 9 8 9 10 10 9 8 7 7 7 8 7 6 6 7 6 7 5 6 7 7 7 6 6 6 5 6 6 5 5 5 5 4 2 3 4 4
6 4 7 2 2 4 3 4 3 1 4 6 5 8 6 1 11 1 2 3 6 5 7 4 3 4 9 10 10 11 11 11 10 9 9 10 10 10 9 9 10 11 11 10 10 8 8 9 10 11 10 12 10 10 10 10 11 10 9 9 9 9 9 8 9 10 8 8 7 7 6 7 7 6 7 6 6 6 5 6 7 6 6 6 6 5 5 5 5 5 5 4 4 4 4 3 3
7 7 3 9 3 2 1 3 3 2 5 6 5 8 11 10 11 2 2 7 11 12 7 4 7 9 12 9 9 7 6 8 10 11 11 11 12 13 12 11 10 9 9 9 8 8 8 7 8 9 10 10 10 8 7 7 8 8 8 9 10 8 7 7 7 8 8 9 9 8 8 7 7 6 7 7 7 6 6 6 6 6 5 5 4 4 4 5 5 6 4 5 4 4 5 4 2
0 2 3 1 4 2 6 7 3 5 5 1 8 7 10 7 7 8 9 14 14 13 6 11 15 15 12 11 10 11 12 12 12 12 13 13 13 13 12 12 12 12 11 10 10 8 9 8 9 8 7 7 8 8 8 9 7 7 7 6 6 6 7 8 9 10 9 9 8 9 8 8 8 6 6 7 7 7 7 7 6 6 5 4 4 4 4 6 6 6 5 6 4 4 4 4 2
3 2 5 1 0 1 4 1 4 5 4 5 7 11 3 5 7 10 12 13 14 13 14 14 14 14 12 11 12 11 11 11 12 12 12 12 11 11 10 9 9 7 7 8 9 9 8 7 8 9 11 10 9 8 8 8 7 7 9 9 9 8 8 7 8 7 9 8 7 7 7 7 7 7 7 8 7 7 7 7 7 6 5 5 4 5 4 5 6 5 5 4 4 4 4 3 2
15 15 13 14 9 4 3 9 1 1 2 6 2 17 4 2 1 8 9 10 11 12 13 15 14 12 13 12 10 11 12 12 12 11 10 10 9 9 7 7 7 9 9 11 9 9 9 9 9 9 9 9 10 9 9 8 7 8 9 9 8 7 8 8 8 8 8 8 8 8 8 7 8 7 7 8 8 6 6 6 6 6 6 5 4 5 5 5 6 5 4 3 5 4 4 2 3
Wind_Direction
316 315 311 306 311 51 49 9 75 310 61 98 125 50 97 63 84 60 46 359 45 288 226 12 39 12 88 120 105 87 18 104 283 131 179 222 250 1 8 78 120 117 124 126 123 116 113 123 131 126 127 125 122 117 115 111 109 107 105 103 101 97 96 94 91 88 85 81 78 76 74 73 72 71 71 70 75 81 82 81 82 82 76 74 71 64 58 54 51 49 49 51 51 48 45 42 41
300 314 311 316 291 64 342 112 102 21 40 60 50 96 94 89 64 85 79 84 183 219 252 86 53 89 97 113 125 85 27 25 40 89 80 94 21 23 330 59 134 131 129 131 127 122 121 129 133 142 133 131 130 125 120 115 113 108 104 104 101 98 94 95 96 92 87 85 82 77 74 73 71 69 70 71 73 78 81 84 87 81 76 73 70 64 58 54 51 50 50 51 52 50 48 46 46
312 343 332 5 30 84 272 52 47 94 79 71 319 108 60 69 101 101 113 113 172 212 56 29 69 58 57 66 34 46 152 21 50 61 86 327 45 300 320 354 135 134 138 139 135 131 132 139 139 128 129 136 135 128 124 121 116 113 110 107 105 101 99 98 95 91 89 84 81 78 76 75 72 73 73 71 70 79 84 84 80 80 76 74 68 63 55 53 51 49 50 51 52 52 50 49 47
303 253 24 26 345 27 60 24 86 110 106 178 64 4 92 121 119 129 136 115 47 62 27 31 65 306 92 69 130 77 76 52 322 197 74 331 207 261 293 341 126 134 136 139 137 132 133 144 132 131 133 128 130 112 128 123 124 120 113 107 107 106 103 98 101 101 93 87 84 82 78 77 76 75 77 77 79 83 88 86 80 73 74 72 66 59 55 54 51 50 51 53 52 53 51 50 50
327 301 156 75 105 355 82 153 118 96 75 185 142 186 123 128 133 113 132 133 46 79 68 122 75 28 80 106 360 76 297 273 30 32 129 257 272 275 311 327 121 141 142 142 136 136 139 139 139 141 145 145 135 141 138 129 134 124 124 121 119 113 112 109 103 101 100 98 93 89 87 85 86 87 84 83 84 84 79 81 82 80 76 73 66 60 58 55 52 51 53 54 56 54 53 51 50
323 18 360 94 102 176 47 34 16 70 223 150 108 151 148 138 125 133 127 66 131 92 95 53 148 119 35 8 18 88 298 77 175 37 130 258 282 324 318 306 139 139 136 135 137 138 145 143 141 145 143 146 142 145 139 138 133 133 132 131 125 117 112 113 112 109 106 105 101 100 93 92 92 95 96 93 90 85 85 85 85 83 78 74 68 62 62 57 55 54 55 57 58 57 55 54 52
330 22 1 22 358 59 135 117 79 91 344 115 139 139 135 143 150 119 119 49 354 43 71 109 104 93 81 212 58 68 2 254 73 306 130 212 317 347 348 119 108 85 113 122 127 134 143 143 145 143 140 145 143 140 145 133 130 135 131 131 123 117 113 112 118 113 110 108 104 98 93 89 85 84 91 94 93 89 88 89 89 89 85 78 73 69 64 61 58 57 60 61 60 60 59 57 55
65 91 318 81 300 53 54 124 86 166 23 79 165 121 137 134 117 105 156 99 255 74 357 114 103 92 299 99 120 335 20 40 94 139 151 115 29 18 35 30 79 94 99 104 107 110 127 132 133 137 144 142 141 146 147 138 135 125 126 130 125 122 123 122 118 115 114 109 100 98 95 90 86 84 82 84 92 89 88 89 88 87 85 80 76 71 64 63 61 58 61 64 66 64 62 59 56
345 84 351 66 28 20 70 86 107 107 115 44 54 140 128 133 132 137 91 145 126 66 14 28 111 80 184 65 84 127 30 13 41 55 56 55 49 32 45 41 65 75 75 86 98 108 107 112 116 126 130 135 139 150 150 145 133 145 125 129 128 124 125 127 123 117 104 106 105 100 97 91 82 78 86 90 94 95 92 91 90 86 84 81 77 71 66 63 59 57 58 62 65 67 67 66 63
15 91 326 124 127 70 82 344 78 196 138 176 114 104 96 29 44 94 124 73 130 101 10 39 101 115 132 98 100 354 16 335 33 46 58 57 52 49 55 54 60 75 73 71 69 76 87 89 94 110 122 129 138 143 144 137 138 124 132 126 138 129 117 118 124 107 93 100 94 92 103 96 86 90 93 99 101 102 103 99 94 91 90 85 79 75 71 67 65 60 57 60 61 62 63 66 66
7 6 145 60 25 69 126 163 99 75 120 145 52 36 150 128 91 98 111 134 101 104 322 81 63 119 116 58 120 278 360 29 44 37 77 81 56 47 61 57 61 62 70 63 69 73 77 88 91 96 93 99 113 117 126 138 134 126 127 137 136 122 119 125 129 114 98 93 97 99 98 100 102 95 95 104 113 109 103 103 99 98 95 91 84 78 75 71 68 63 60 60 60 60 57 57 58
30 355 9 102 95 194 208 137 148 129 101 86 37 70 342 70 83 76 88 96 58 48 55 35 132 137 59 111 231 329 8 14 352 24 100 82 66 56 62 63 71 70 73 73 67 57 67 58 97 102 101 100 90 90 111 126 147 135 122 124 137 118 100 137 135 136 115 107 107 113 114 118 114 100 100 112 117 118 113 104 102 103 99 94 92 85 80 76 73 69 63 60 60 59 57 54 54
110 77 67 80 237 82 144 98 184 132 108 161 166 249 75 65 66 164 104 81 79 77 25 352 211 89 112 145 215 290 30 314 315 29 105 96 88 69 60 55 66 75 72 70 70 60 55 51 44 120 117 97 94 102 109 119 128 130 138 141 141 131 152 125 145 138 132 126 122 121 123 123 123 115 110 115 119 116 111 103 108 110 107 99 91 84 79 78 76 73 66 61 59 57 53 51 51
97 147 115 271 256 105 122 146 132 115 271 237 246 175 42 107 63 123 105 75 12 108 229 330 70 105 92 84 265 290 223 266 287 346 104 107 105 89 73 56 56 65 67 64 68 68 56 42 48 59 62 127 138 127 132 131 138 142 137 133 126 124 138 135 129 140 137 131 125 128 130 132 133 129 122 119 118 109 93 99 114 117 109 105 99 92 86 82 79 76 70 65 62 58 56 53 52
70 149 85 108 336 79 178 119 192 132 166 180 238 109 68 24 113 57 107 115 95 200 191 51 180 77 222 130 249 206 229 233 242 245 120 119 112 108 97 82 72 62 57 61 53 55 55 51 43 42 65 58 90 160 166 154 151 150 142 143 141 152 131 126 118 130 132 133 132 133 132 133 132 132 127 120 124 122 111 109 115 110 112 111 109 98 90 87 85 83 80 75 72 65 59 57 56
136 77 82 76 312 109 265 111 93 101 188 162 219 118 72 342 46 92 203 148 184 10 57 322 21 137 115 142 195 186 225 236 231 201 119 118 111 98 99 95 88 71 47 36 39 37 49 51 36 36 48 45 50 86 182 170 161 149 149 153 154 151 140 134 125 128 132 130 133 137 136 130 131 133 131 123 124 120 114 121 123 123 121 117 109 99 94 96 95 94 95 91 84 78 67 56 50
50 82 44 31 332 60 299 55 115 167 219 196 272 117 118 212 312 86 166 82 109 29 65 359 55 38 88 158 190 204 243 244 213 183 127 119 120 107 79 70 75 64 66 55 45 18 18 23 7 24 28 28 16 354 85 174 173 150 149 158 159 154 153 150 145 134 123 124 133 140 139 141 143 137 141 138 130 123 132 132 131 127 119 114 111 105 98 100 105 105 108 105 95 87 77 58 39
61 56 108 22 197 54 284 135 195 181 127 192 175 139 108 127 332 288 66 56 79 60 78 44 41 54 110 149 165 193 25 71 130 126 116 127 122 118 94 86 82 86 67 48 36 31 23 13 7 6 7 352 359 348 360 92 161 168 152 150 161 160 162 158 150 148 146 140 138 144 155 150 146 152 140 145 141 134 138 137 127 129 125 127 122 113 113 104 100 99 96 103 97 88 65 53 45
91 84 79 165 163 324 313 180 80 113 166 168 186 108 132 189 136 259 87 299 111 70 43 74 82 53 42 70 81 70 56 57 88 103 103 109 110 111 114 91 75 77 60 53 34 34 22 9 6 359 348 345 340 343 345 32 159 169 156 161 148 158 155 163 149 147 163 150 152 167 152 135 178 168 153 162 154 143 136 140 137 138 134 137 135 127 125 124 107 95 80 78 80 53 28 20 35
310 110 71 227 196 99 47 55 68 78 151 136 108 53 111 180 109 180 172 227 123 154 145 64 126 154 151 130 97 80 70 65 68 85 88 85 86 96 89 90 77 64 69 67 56 37 24 16 358 339 341 337 340 321 341 359 171 210 168 161 154 153 143 151 160 153 163 143 162 160 171 175 168 168 158 152 125 122 123 136 148 141 140 144 140 134 141 141 128 113 81 57 43 61 69 56 62
302 70 150 206 200 102 316 72 39 72 108 127 121 105 73 337 224 127 187 91 190 218 215 170 183 168 163 157 126 101 87 77 68 71 80 81 76 79 93 97 104 87 85 54 51 36 20 14 352 339 329 321 328 311 318 305 295 196 185 165 158 157 148 149 134 116 135 132 132 137 106 100 114 125 117 116 104 112 132 117 134 144 150 146 147 149 153 143 125 115 104 74 95 81 63 60 67
76 135 198 178 67 81 223 128 66 67 79 112 106 90 186 266 22 98 150 192 220 199 219 206 150 152 154 148 137 114 104 96 88 81 81 83 81 68 65 71 59 62 43 48 35 28 24 350 338 315 316 304 301 287 281 285 340 72 132 132 124 97 100 76 67 60 47 46 44 51 81 96 116 111 90 97 111 125 122 128 131 136 143 155 160 141 151 130 114 124 126 127 112 94 87 80 80
68 318 51 47 97 137 200 93 313 89 75 108 103 197 61 95 260 242 159 191 212 161 138 115 129 143 146 123 123 115 114 109 106 105 99 88 69 56 66 76 72 60 55 46 43 37 6 327 327 317 301 296 286 297 314 318 13 50 76 79 91 79 78 74 65 63 56 57 53 41 60 68 74 112 120 105 114 130 129 143 158 162 157 156 150 103 83 67 67 106 134 128 111 104 96 85 79
101 207 8 1 46 127 139 137 147 95 105 108 177 82 138 139 228 228 179 320 148 129 116 116 117 120 119 117 122 130 127 126 122 120 121 124 116 80 83 80 66 69 59 29 42 33 346 332 322 313 313 290 259 300 354 26 73 81 79 80 78 84 79 76 71 70 63 52 45 37 52 68 73 99 104 99 87 83 84 84 98 104 88 123 126 111 107 87 95 87 97 80 85 82 83 68 73
90 33 327 279 54 191 150 159 167 136 188 160 98 150 230 171 193 346 226 177 150 129 119 117 118 110 108 117 125 125 123 127 123 125 103 111 108 92 75 78 71 67 65 43 31 25 333 330 320 339 336 358 323 348 73 89 88 87 81 78 76 73 71 67 66 57 55 49 42 38 32 57 58 79 78 82 79 81 82 77 76 65 58 62 94 88 99 96 73 68 68 68 70 75 69 71 85
67 187 49 306 275 228 178 143 165 174 212 124 73 238 269 243 203 240 188 178 158 129 121 137 123 120 129 135 137 134 132 135 137 128 136 110 104 84 62 77 77 71 70 58 36 352 340 331 350 345 348 16 71 83 88 86 89 89 82 79 82 72 70 68 62 61 53 54 47 42 42 55 66 82 86 79 80 65 64 64 65 66 68 56 66 75 65 77 70 66 68 66 69 67 64 64 93
162 67 13 268 261 308 255 181 216 201 191 164 179 254 264 306 151 276 68 162 145 127 141 149 133 134 137 138 138 139 133 140 144 148 101 85 84 98 94 73 85 88 74 55 24 3 335 352 5 357 5 44 78 83 90 86 84 85 82 82 78 77 77 72 67 63 56 51 52 52 54 50 59 64 75 77 78 76 66 66 60 61 66 56 74 84 74 85 81 75 69 78 69 61 51 43 85
86 102 355 311 290 271 262 245 228 118 276 180 154 230 271 318 68 235 159 163 152 142 156 153 142 143 144 140 138 145 130 155 124 113 127 114 124 121 98 101 100 84 81 52 24 350 24 19 18 15 23 45 78 81 86 81 78 85 85 81 76 77 74 71 70 62 54 45 36 55 59 60 65 66 70 69 75 80 73 69 65 61 61 61 65 76 75 68 71 71 67 52 66 63 52 38 36
179 93 339 292 339 316 256 225 219 149 253 155 143 345 307 185 224 277 151 149 154 145 159 162 153 154 152 147 143 143 156 153 122 114 141 137 126 127 121 129 116 106 92 73 19 42 39 25 37 27 35 53 76 82 84 85 80 80 84 81 81 78 71 69 66 59 56 44 46 50 54 67 71 76 72 75 70 78 74 68 61 54 45 51 57 64 70 64 61 56 48 43 38 40 39 33 27
65 43 170 344 359 315 257 217 138 141 240 135 127 296 270 235 239 60 156 149 137 136 165 172 165 159 161 161 153 153 157 131 130 146 143 130 124 129 124 124 103 106 111 78 60 65 43 30 65 57 54 65 68 67 84 84 78 79 81 82 78 77 74 71 64 62 55 47 51 57 57 55 67 77 82 78 74 71 70 64 61 49 36 49 58 53 60 54 57 54 52 57 43 44 41 29 38
162 253 74 192 20 278 304 190 164 151 278 167 84 214 279 265 294 228 184 164 155 167 181 182 171 171 169 171 159 166 178 163 157 150 139 134 132 131 127 126 117 121 120 98 86 83 64 64 66 76 70 75 77 77 80 82 73 83 88 82 79 84 75 71 66 62 59 53 56 54 56 63 65 71 72 82 78 76 77 73 64 64 65 62 65 56 68 63 66 62 50 63 54 44 41 38 38
192 40 298 323 156 277 306 31 159 166 271 114 95 293 248 274 242 196 195 181 165 172 183 187 182 180 180 175 169 168 166 161 151 143 138 136 137 134 131 130 124 128 122 122 104 93 83 77 82 92 84 92 85 81 82 85 87 92 86 86 88 79 74 69 60 55 57 54 53 55 49 63 72 75 73 74 82 77 80 78 74 73 73 77 73 70 70 70 70 68 50 53 59 38 37 30 28
350 143 266 265 165 252 344 251 210 140 121 324 175 226 320 293 225 196 200 186 186 178 191 195 190 188 183 182 178 172 160 159 149 150 149 143 145 136 137 132 135 138 140 127 119 113 100 94 99 105 101 104 106 97 92 91 94 86 87 89 85 79 75 70 60 53 56 57 49 53 46 54 59 65 67 67 82 75 69 70 59 57 49 61 65 67 69 68 73 70 56 44 52 53 37 28 22
314 67 219 211 199 282 256 302 282 151 131 212 254 229 241 240 226 204 208 197 191 203 205 202 197 192 190 183 181 179 178 173 172 166 157 152 142 138 140 148 147 142 132 126 127 123 120 119 112 114 113 110 110 111 110 105 98 96 92 87 83 79 74 69 63 57 59 62 54 53 53 58 61 66 67 69 78 76 75 73 64 55 57 59 62 57 55 53 60 67 69 50 41 44 38 26 7
212 154 266 295 314 196 215 151 252 126 212 179 232 244 264 266 256 226 207 197 199 214 207 201 198 194 189 189 189 185 183 185 182 165 154 154 144 145 147 160 149 143 138 136 133 122 117 119 119 115 117 119 116 116 114 107 106 98 91 86 78 77 72 64 60 62 60 63 57 53 58 59 61 63 64 65 75 74 71 67 65 55 57 62 63 60 56 58 62 58 66 59 51 54 54 29 5
175 173 177 182 245 291 249 237 243 169 191 225 193 216 243 253 253 237 231 205 203 223 232 242 221 202 192 194 195 188 188 189 168 159 153 150 152 153 157 165 148 146 144 144 138 134 129 130 127 123 126 129 127 126 119 113 113 107 99 92 83 76 78 76 63 64 63 64 56 57 59 63 62 63 63 67 73 74 74 69 69 60 59 67 66 62 54 55 65 66 58 62 52 48 40 23 23
214 188 152 225 216 282 285 233 255 152 61 228 226 234 248 258 251 244 223 198 222 236 234 229 213 200 197 198 198 192 185 179 161 153 151 155 160 162 164 162 148 148 149 147 140 146 146 143 139 140 143 145 139 128 125 132 120 106 92 96 98 91 89 84 73 64 67 63 60 60 62 65 66 67 63 69 76 77 75 74 73 65 66 71 73 71 67 63 54 67 75 58 54 51 31 15 12
237 243 266 286 200 270 242 280 205 259 168 291 251 258 261 255 260 261 218 172 219 218 224 228 218 206 202 196 193 186 164 103 144 143 154 151 160 165 165 165 157 151 159 146 148 154 140 127 125 125 122 123 126 125 129 114 108 123 122 116 107 97 93 92 85 66 73 67 61 62 66 68 70 70 70 75 75 80 83 77 72 73 72 76 83 80 69 60 55 46 39 65 45 63 49 21 9
243 219 233 249 279 238 290 334 316 277 165 261 277 265 262 264 260 267 224 199 218 215 212 215 205 203 202 199 187 162 149 166 163 163 162 166 173 177 169 171 163 151 152 149 147 141 132 118 119 114 113 116 115 119 120 112 107 114 116 121 114 100 71 84 93 87 78 78 65 61 65 69 74 71 72 75 79 77 81 81 76 76 71 83 79 66 62 56 53 53 46 70 62 50 73 35 33
177 152 162 228 232 340 293 295 288 250 180 249 288 287 273 269 257 252 247 216 225 225 222 224 205 199 198 195 183 177 174 168 178 178 173 172 175 182 177 176 167 153 155 156 153 144 133 127 124 119 120 118 117 112 103 101 103 99 98 107 94 101 114 96 86 75 72 76 64 60 55 66 71 75 71 76 81 77 81 84 85 76 71 67 81 79 66 61 52 49 51 47 66 65 33 38 38
301 187 186 190 246 229 201 260 310 319 320 3 316 294 279 247 257 263 261 259 255 249 226 234 236 225 214 195 190 182 176 176 173 170 174 174 178 186 183 174 163 160 166 166 162 155 142 136 131 129 130 130 126 123 118 116 108 103 104 98 100 93 77 87 86 65 65 77 81 61 57 60 72 77 74 77 85 86 83 86 85 82 79 69 75 76 72 69 67 64 61 65 51 97 62 43 27
290 235 193 215 219 244 250 315 28 22 336 308 101 331 283 276 242 248 271 348 258 253 206 223 217 213 179 185 193 186 192 182 173 176 176 175 173 170 178 174 171 168 170 176 162 148 136 131 127 122 118 125 131 131 132 128 128 129 128 125 121 115 111 106 107 120 103 88 90 91 67 62 76 80 77 79 79 83 80 79 81 81 76 71 70 79 81 70 57 58 48 72 64 45 101 64 40
179 269 188 209 218 229 240 274 39 302 252 299 87 222 284 258 265 250 263 268 263 275 223 233 220 210 197 197 187 183 178 173 173 162 161 168 177 175 179 180 177 168 180 170 148 144 136 133 132 131 133 131 136 137 139 133 133 135 130 123 122 125 124 98 101 102 109 103 100 89 87 71 68 82 73 75 77 79 82 78 80 80 79 78 77 77 70 69 67 62 56 63 62 65 66 74 56
228 240 165 146 172 213 231 202 176 226 237 308 17 124 264 295 274 203 228 239 251 255 250 240 226 213 208 198 184 180 176 173 169 174 176 178 178 179 179 176 174 173 174 161 147 146 139 138 134 134 135 140 145 144 147 148 134 130 120 116 117 120 120 129 129 121 108 113 98 92 88 76 68 70 80 74 77 80 85 82 82 81 80 75 77 74 79 78 77 60 63 70 67 59 68 86 77
213 245 153 120 139 157 114 101 109 209 27 285 298 33 303 238 274 307 170 246 255 253 246 241 231 215 211 198 186 178 175 174 170 169 177 179 181 182 173 171 171 164 177 161 155 150 139 136 132 133 138 143 148 149 142 143 130 130 124 124 115 111 120 124 123 117 113 112 100 93 89 87 79 72 75 84 79 83 82 89 85 84 82 79 82 85 80 75 74 75 63 60 65 60 60 78 80
251 142 80 84 76 71 77 74 45 336 23 256 199 187 231 276 229 261 260 231 246 248 244 241 234 204 196 191 181 169 164 166 174 173 172 175 174 171 163 141 155 171 177 157 148 139 138 135 133 134 137 143 147 142 134 134 127 125 126 130 128 130 129 124 121 121 117 116 106 103 99 95 93 87 80 81 85 81 87 86 86 86 89 89 84 87 85 77 73 73 73 78 75 74 57 64 79
132 73 64 20 36 29 10 69 90 38 254 246 196 208 178 283 216 190 178 223 202 239 269 266 241 183 193 191 176 169 167 165 166 165 168 165 162 156 150 160 161 162 173 157 150 145 142 139 139 136 140 134 139 137 134 136 133 131 134 140 139 139 139 135 130 125 127 121 117 115 109 105 99 98 95 83 85 92 88 86 91 91 89 89 89 85 83 89 84 85 83 76 68 75 69 73 70
123 110 112 49 340 13 33 349 43 168 264 224 207 204 178 228 285 278 247 266 222 198 215 237 243 201 191 183 178 173 166 164 159 158 161 155 150 155 155 160 166 169 165 159 159 149 145 145 142 136 137 138 136 137 133 137 136 135 138 145 144 146 145 145 142 142 146 135 132 126 123 110 102 100 98 98 90 94 97 92 94 94 91 93 89 95 93 93 92 90 80 79 78 79 79 78 77
92 100 80 131 252 35 319 39 276 205 234 255 226 160 17 241 243 264 278 269 275 220 197 210 219 213 189 182 177 172 165 159 164 164 161 166 167 166 171 168 165 173 174 167 167 157 149 147 148 143 148 147 141 142 137 139 138 142 147 148 144 144 144 142 143 141 149 142 141 136 136 127 130 114 117 110 113 110 111 106 101 100 98 93 101 95 96 95 95 90 91 86 87 82 87 89 82
126 141 148 124 231 219 267 247 242 296 293 263 360 156 242 296 279 230 244 254 260 273 239 228 193 189 185 178 170 168 172 171 170 167 169 170 169 174 176 173 175 174 174 172 169 160 157 153 154 150 153 151 143 140 142 142 146 147 150 151 149 149 149 149 150 147 151 146 147 144 144 144 140 138 136 128 137 119 101 107 108 102 102 105 101 103 103 104 100 101 99 94 91 105 93 89 95
201 110 151 187 148 151 234 178 208 220 220 294 273 119 236 139 240 251 244 276 311 314 297 256 201 177 160 152 148 152 164 177 171 173 174 172 174 175 177 177 178 179 175 174 171 164 157 157 158 155 151 155 147 146 146 146 148 150 151 151 149 150 152 152 152 152 150 148 150 141 139 140 136 142 135 137 126 114 111 108 108 108 110 108 108 107 107 103 105 100 95 102 100 102 96 92 80
218 166 60 95 220 147 227 194 184 273 323 324 194 207 192 196 237 274 248 302 354 350 31 123 141 128 139 151 168 177 178 176 177 175 174 177 177 176 176 181 181 180 179 175 173 167 163 163 160 159 155 154 151 149 152 150 151 149 148 152 155 152 149 142 141 146 150 148 148 145 142 141 137 131 127 124 122 120 122 116 112 112 113 111 110 113 111 106 102 98 95 92 88 74 97 94 109
216 110 198 205 183 179 273 345 315 60 29 250 157 279 283 300 279 249 239 206 289 336 245 174 177 169 164 180 183 184 183 177 178 179 178 180 180 184 183 181 182 181 181 182 177 172 165 161 160 156 155 151 152 155 152 153 151 149 154 155 153 154 156 159 158 156 150 144 138 139 137 138 130 128 127 124 125 121 124 125 119 119 115 116 112 112 110 112 114 112 113 108 102 100 124 140 118
98 186 227 67 72 114 133 223 334 38 225 272 163 232 268 75 282 238 177 204 255 262 237 233 203 187 191 198 193 190 187 183 177 177 181 183 184 185 184 187 187 186 181 176 174 170 166 163 162 157 158 156 157 155 154 155 153 153 155 157 160 161 159 156 153 149 145 137 135 129 130 132 139 137 129 130 128 129 126 124 120 118 118 114 117 117 124 132 127 117 117 108 121 110 103 99 128
155 193 201 138 247 238 281 92 269 199 253 282 253 218 250 188 244 75 191 209 232 237 230 224 222 211 212 203 201 197 181 173 177 181 183 185 187 189 188 187 183 180 177 174 166 163 161 161 162 160 160 159 153 151 147 147 150 153 159 160 158 154 153 149 144 141 141 142 143 145 142 138 127 129 130 133 134 133 131 126 122 118 113 117 125 145 143 135 132 124 119 113 98 93 98 102 131
51 73 160 169 102 165 145 201 174 113 257 19 282 116 257 167 223 186 216 206 217 224 205 223 219 211 206 202 194 190 190 189 187 189 190 189 189 188 185 180 178 176 173 172 168 163 164 161 156 153 143 142 142 147 150 153 155 150 148 143 146 149 152 151 151 148 148 148 148 144 141 138 144 138 143 144 142 143 140 132 127 124 129 143 150 153 137 126 122 127 130 120 123 105 98 106 87
176 129 195 211 20 244 123 298 160 171 196 197 284 287 237 218 197 187 209 205 213 208 210 218 223 216 210 203 193 193 194 195 195 193 189 186 184 182 178 176 171 164 165 165 168 168 161 154 157 158 154 154 153 155 152 156 152 151 150 154 154 153 154 148 143 145 140 144 144 142 144 142 135 150 153 152 151 149 144 140 139 142 149 158 153 139 130 123 122 125 126 126 120 109 107 113 115
176 173 192 182 143 145 181 255 75 162 160 248 186 265 268 252 171 193 200 208 213 216 208 218 222 213 205 202 197 193 193 200 198 194 185 179 177 173 165 160 157 159 167 169 168 160 162 164 162 156 151 159 157 160 160 156 155 154 157 155 156 153 150 147 145 145 144 147 148 149 147 146 153 162 160 156 153 149 144 143 143 149 154 156 149 133 130 127 127 131 131 124 114 112 114 123 123